This is the latest recevied weather packets stored in our database for station/object W1REE. If no packets are shown the sender has not sent any weather packets the latest 10 day(s).
| Time | Temp. | Humidity | Pressure | Rain* | Wind** | Luminosity | Snow |
|---|---|---|---|---|---|---|---|
| 1777810178 | 6.67° C | 44% | 1020.4 hPa | 0 mm | - | 10 W/m² | - |
| 1777809876 | 7.22° C | 46% | 1020.1 hPa | 0 mm | - | 6 W/m² | - |
| 1777809574 | 7.78° C | 43% | 1020.1 hPa | 0 mm | - | 4 W/m² | - |
| 1777809271 | 7.78° C | 43% | 1020.2 hPa | 0 mm | - | 2 W/m² | - |
| 1777808969 | 7.78° C | 42% | 1020 hPa | 0 mm | - | 1 W/m² | - |
| 1777808666 | 7.22° C | 47% | 1020 hPa | 0 mm | - | 0 W/m² | - |
| 1777808362 | 7.78° C | 44% | 1019.9 hPa | 0 mm | - | 0 W/m² | - |
| 1777808061 | 7.78° C | 42% | 1020 hPa | 0 mm | - | 0 W/m² | - |
| 1777807758 | 8.89° C | 40% | 1019.9 hPa | 0 mm | - | 0 W/m² | - |
| 1777807457 | 8.89° C | 37% | 1020 hPa | 0 mm | - | 0 W/m² | - |
| 1777807157 | 7.78° C | 39% | 1020 hPa | 0 mm | - | 0 W/m² | - |
| 1777806855 | 6.67° C | 47% | 1020.2 hPa | 0 mm | - | 0 W/m² | - |
| 1777806551 | 6.11° C | 46% | 1020.1 hPa | 0 mm | - | 0 W/m² | - |
| 1777806247 | 6.11° C | 47% | 1020.2 hPa | 0 mm | - | 0 W/m² | - |
| 1777805944 | 6.11° C | 47% | 1020.2 hPa | 0 mm | - | 0 W/m² | - |
| 1777805640 | 6.11° C | 48% | 1019.9 hPa | 0 mm | - | 0 W/m² | - |
| 1777805338 | 6.11° C | 44% | 1020.1 hPa | 0 mm | - | 0 W/m² | - |
| 1777805035 | 5.56° C | 46% | 1020.2 hPa | 0 mm | - | 0 W/m² | - |
| 1777804733 | 6.11° C | 46% | 1020.2 hPa | 0 mm | - | 0 W/m² | - |
| 1777804431 | 6.67° C | 47% | 1020.2 hPa | 0 mm | - | 0 W/m² | - |
| 1777804128 | 6.67° C | 45% | 1020.4 hPa | 0 mm | - | 0 W/m² | - |
| 1777803824 | 5.56° C | 43% | 1020.1 hPa | 0 mm | - | 0 W/m² | - |
| 1777803520 | 5° C | 50% | 1020.1 hPa | 0 mm | - | 0 W/m² | - |
| 1777803218 | 5.56° C | 55% | 1020.2 hPa | 0 mm | - | 0 W/m² | - |
| 1777802915 | 5° C | 49% | 1020.4 hPa | 0 mm | - | 0 W/m² | - |
* Rain latest hour (hover to see other rain measurements)
** Current wind speed in m/s (hover to see current wind gust speed)